Wetbulb
58.94 60.02 60.38 60.77 60.79 60.92 60.19 62.16 62.89 63.24 63.11 63.35 63.66 63.13 62.33 61.83 61.49 60.01 56.27 60.08 60.67 62.14 61.10 58.61 57.80 55.37 54.56 55.50 55.92 55.24 49.92 48.21 48.53 48.97 49.70 53.74 52.81 53.82 56.43 56.28 57.75 59.38 58.12 62.30 64.74
58.34 59.30 59.97 60.52 60.59 60.62 60.74 59.18 61.91 62.67 62.97 61.91 62.68 62.75 61.66 60.72 58.78 56.68 61.37 62.09 62.66 62.48 59.61 58.51 52.85 54.26 51.62 52.30 53.82 52.06 50.04 49.87 52.24 50.93 49.47 51.82 53.29 53.35 53.47 54.86 55.54 57.63 60.57 64.23 63.25
58.19 58.79 59.36 60.19 60.10 60.38 60.45 60.30 57.69 61.05 62.56 61.79 61.90 62.24 60.67 59.67 55.63 55.77 62.60 62.89 63.40 61.71 60.56 62.35 57.49 54.40 50.93 52.02 52.59 52.91 50.23 53.75 50.08 50.43 50.70 49.73 50.17 53.48 53.00 51.83 54.47 55.47 58.84 62.10 61.14
57.40 57.99 58.74 59.32 59.83 59.84 60.07 60.08 59.25 57.11 61.59 62.19 62.14 61.46 59.70 57.80 46.39 58.19 62.27 63.13 63.72 61.18 58.80 59.26 57.41 51.38 49.38 48.42 52.97 48.05 53.71 54.52 50.93 49.76 49.81 49.42 50.58 49.97 52.29 53.65 55.49 57.09 60.97 61.57 60.35
56.68 57.01 57.73 58.71 59.24 59.39 59.81 59.53 59.13 58.51 55.88 61.92 62.32 60.48 56.37 52.17 53.97 59.82 61.60 62.44 60.41 59.17 57.23 56.62 56.13 54.16 49.37 49.99 50.13 48.39 52.59 51.66 50.56 49.58 50.00 50.01 49.14 49.53 51.07 54.63 55.66 58.47 61.01 60.57 60.12
56.10 56.26 56.89 57.59 58.61 59.07 59.44 59.47 58.84 58.18 57.65 55.96 61.59 59.43 53.97 47.78 60.74 60.74 58.96 59.30 59.31 58.81 57.65 57.62 56.26 56.40 52.84 51.32 50.08 52.34 52.14 50.25 50.15 50.36 50.10 49.77 49.45 48.83 52.00 54.25 55.05 58.37 59.89 60.83 60.98
55.77 55.82 56.16 56.81 57.72 58.24 58.72 58.90 59.22 58.05 57.73 57.14 61.11 56.92 52.28 51.02 60.27 61.02 59.42 58.79 59.48 59.17 56.97 58.61 58.08 54.33 52.53 49.08 52.36 51.00 47.87 48.71 49.11 50.72 50.76 50.43 49.56 47.78 52.42 53.45 54.16 56.61 59.12 60.79 61.35
55.39 55.40 55.85 56.28 57.35 57.91 58.30 58.43 58.42 58.28 57.80 57.06 56.56 55.93 49.91 58.85 60.32 59.27 59.72 58.22 58.97 59.60 59.62 59.79 58.02 54.61 50.23 52.11 47.67 48.09 49.01 44.04 50.06 49.62 50.52 49.49 45.92 52.83 52.87 52.29 53.00 55.19 57.62 59.43 60.87
55.04 54.71 55.62 56.42 56.96 57.23 57.58 57.93 58.04 57.67 57.22 57.04 51.24 53.46 48.72 56.24 55.35 58.63 58.93 55.20 56.62 57.65 58.88 57.74 55.59 52.34 51.11 45.96 45.14 46.08 43.08 44.10 47.77 51.60 50.85 47.90 47.91 53.64 51.18 51.56 52.28 54.13 56.16 58.57 59.76
54.66 54.88 55.77 56.41 56.59 56.69 56.94 57.54 57.62 57.30 56.20 54.69 51.63 49.43 50.14 50.05 55.20 56.87 58.79 57.32 54.47 54.88 53.27 52.65 50.84 48.71 48.30 45.62 40.79 40.85 42.53 45.01 46.47 48.71 47.23 47.55 47.05 52.29 49.74 50.32 51.58 53.42 55.45 57.07 58.72
54.41 55.33 55.62 55.64 55.07 55.93 55.86 54.45 49.15 48.66 50.54 45.17 49.07 48.77 48.92 54.71 57.13 54.31 56.79 55.04 54.51 52.50 46.98 49.53 45.27 43.40 46.70 47.88 49.30 47.57 43.74 45.67 48.50 49.25 45.48 46.85 48.18 51.01 52.90 50.25 49.68 51.19 53.52 55.80 57.22
54.00 54.23 54.75 55.26 54.96 53.92 54.74 48.60 49.54 51.84 43.34 48.18 46.95 51.60 52.38 54.26 48.63 51.98 56.25 50.56 48.97 44.94 48.15 45.12 42.91 48.28 49.84 49.28 48.09 46.83 45.67 45.44 48.84 44.71 44.02 47.10 46.74 48.91 50.61 51.84 50.39 50.53 51.51 53.75 56.41
52.74 52.85 53.03 54.02 54.40 53.19 51.60 50.62 54.83 53.86 44.71 44.89 46.00 49.94 50.27 52.72 48.02 48.45 53.15 51.39 47.84 45.07 45.11 43.03 45.35 49.78 48.30 47.10 45.23 45.63 44.85 45.98 45.91 45.81 46.69 46.28 45.25 48.20 51.64 51.08 51.07 50.33 50.91 52.57 54.45
51.26 51.53 52.23 53.45 49.59 51.49 49.42 54.10 54.71 53.03 36.49 36.61 45.48 47.59 50.29 51.06 46.16 53.13 53.95 50.85 47.53 44.31 45.29 43.90 48.29 47.43 47.29 45.99 46.87 41.73 46.03 46.64 44.52 42.77 39.95 45.72 38.25 47.24 51.02 51.59 51.30 50.66 50.19 50.61 52.93
49.91 51.12 51.99 52.85 49.93 47.69 50.07 54.31 54.88 50.01 26.04 39.10 43.87 52.25 50.56 46.91 46.55 47.35 54.17 50.18 44.21 44.53 45.37 42.83 43.38 44.74 44.04 45.34 48.15 42.54 47.03 44.97 40.74 40.29 38.88 42.20 38.50 43.94 48.54 48.33 50.70 52.80 51.67 51.08 52.32
49.71 50.93 51.68 50.49 50.81 51.32 53.50 54.48 51.50 34.78 26.52 34.06 40.96 42.38 44.36 45.82 45.84 47.43 46.86 50.34 50.35 45.31 45.79 42.50 45.16 47.32 46.96 48.28 48.34 45.22 40.42 39.61 40.07 39.07 34.09 40.51 40.09 40.54 44.98 47.54 49.29 51.39 52.93 53.53 51.83
50.06 50.99 50.71 50.97 45.49 50.97 51.13 48.39 33.89 28.32 33.88 31.14 35.20 42.18 42.53 42.05 42.29 43.96 41.25 42.08 41.23 37.10 37.74 40.01 41.57 42.77 46.14 40.85 43.26 41.95 41.21 32.56 31.69 31.94 31.81 38.46 38.80 41.52 47.52 50.02 50.05 48.80 51.65 52.90 52.93
49.12 50.28 50.11 50.02 51.81 50.04 47.30 37.89 27.89 33.95 32.31 36.24 38.95 41.65 38.92 41.98 41.46 41.48 40.12 39.29 44.61 43.16 38.64 34.24 31.27 38.63 45.34 42.02 37.94 39.19 40.14 34.12 29.13 29.96 34.49 34.05 34.73 41.13 47.96 47.98 45.42 50.08 48.98 49.50 51.04
48.98 48.58 47.83 49.34 50.38 49.06 36.15 27.30 32.13 33.10 35.49 36.70 39.90 37.16 36.47 39.05 40.26 39.98 39.51 39.89 43.47 44.76 37.72 35.22 34.57 40.97 42.13 44.27 43.39 38.16 36.26 42.30 34.71 29.25 31.91 37.12 40.17 44.53 46.64 46.51 47.45 47.05 47.93 48.57 48.11
45.60 44.13 44.96 50.15 49.83 42.10 32.38 28.80 32.40 39.28 39.93 40.27 35.17 37.24 32.52 34.07 37.79 37.93 38.65 42.99 42.94 46.04 46.61 41.27 32.64 38.40 38.65 44.15 42.23 42.61 43.52 34.78 36.11 30.04 28.07 35.59 38.04 39.50 42.44 44.89 47.25 46.95 47.07 48.55 49.36
44.31 38.73 45.29 49.35 46.23 35.91 28.81 31.12 33.30 40.86 43.08 39.32 38.05 36.45 36.55 34.77 39.47 38.07 38.61 42.43 45.37 45.35 46.55 43.94 38.31 34.09 37.75 37.90 37.44 38.36 37.14 39.47 40.07 37.35 31.31 30.61 36.72 44.18 45.34 45.48 45.25 44.55 44.60 45.85 46.90
41.10 32.89 44.07 48.26 34.21 34.40 31.93 34.18 37.72 37.91 43.22 42.62 43.30 41.68 38.44 39.70 38.54 38.23 37.94 42.24 46.50 46.19 41.20 42.77 38.05 30.52 33.77 38.25 41.80 42.53 39.51 39.75 35.11 31.53 35.41 34.68 35.44 43.63 44.17 44.30 44.25 44.33 45.29 46.72 47.68
33.96 36.54 43.05 44.08 30.71 31.55 35.04 35.34 37.20 38.51 40.03 41.04 40.56 42.47 42.44 40.04 36.29 40.03 40.62 44.71 45.34 44.01 42.01 41.16 36.40 28.96 29.24 35.16 39.08 37.50 41.07 41.67 41.10 37.35 34.57 32.71 36.61 47.79 45.07 43.09 44.22 44.87 45.58 46.71 47.26
35.92 31.62 35.14 37.29 34.85 33.68 33.34 33.80 34.03 42.02 41.45 43.66 42.84 43.90 41.40 39.93 42.02 37.97 38.57 41.51 44.99 45.17 42.72 42.44 38.17 35.30 30.83 34.46 37.31 33.86 37.70 39.70 39.37 34.25 35.18 35.97 39.57 43.93 44.26 44.31 44.93 45.56 47.01 47.79 48.09
37.15 32.60 33.05 30.72 32.28 33.30 35.11 36.02 34.98 34.45 38.08 41.90 39.86 41.92 40.95 36.14 37.08 35.98 37.73 39.74 43.26 43.42 42.18 42.19 34.50 38.10 38.58 39.43 38.78 37.38 36.68 38.25 36.77 38.63 35.38 38.53 39.27 42.75 45.63 46.74 47.91 49.00 48.90 48.26 48.27
33.81 33.13 32.49 32.62 32.71 32.40 33.19 33.58 35.38 33.88 37.23 37.11 38.73 42.06 42.19 37.43 38.64 35.07 37.44 38.72 38.52 41.96 40.65 41.26 35.30 36.25 31.03 37.69 38.27 35.76 38.57 38.83 38.44 39.47 39.35 40.17 39.54 45.84 46.85 47.69 46.28 46.95 47.34 47.10 47.51
37.86 37.07 35.74 33.48 33.11 32.08 33.15 35.55 36.35 38.41 40.27 41.92 42.19 41.41 39.95 41.58 43.89 43.21 42.41 41.26 42.39 40.60 39.72 37.58 33.87 34.14 28.99 34.41 33.66 30.26 35.16 38.30 39.16 40.70 40.56 36.72 41.70 44.50 43.90 44.84 45.54 46.20 46.78 46.65 47.38
MSLP
1009.71 1010.02 1010.30 1010.73 1011.19 1011.57 1011.94 1012.28 1012.75 1013.25 1013.60 1013.93 1014.51 1015.03 1015.39 1015.59 1015.88 1015.97 1014.99 1014.35 1014.68 1014.99 1015.36 1015.34 1015.44 1015.52 1015.08 1014.28 1014.12 1013.62 1012.59 1011.79 1011.94 1011.92 1011.88 1012.70 1012.86 1013.67 1014.06 1014.08 1014.48 1015.04 1015.28 1015.89 1017.92
1009.22 1009.55 1009.92 1010.35 1010.82 1011.20 1011.64 1012.17 1012.50 1012.88 1013.38 1013.82 1014.94 1015.19 1015.54 1015.72 1015.45 1014.69 1014.48 1014.52 1014.93 1015.14 1014.98 1014.81 1014.93 1014.96 1014.83 1014.50 1014.21 1013.71 1012.62 1012.18 1012.32 1012.65 1012.68 1013.05 1013.13 1013.42 1013.97 1013.87 1014.44 1015.12 1016.08 1016.77 1018.20
1008.68 1009.04 1009.29 1009.75 1010.29 1010.85 1011.16 1011.88 1012.51 1012.67 1012.74 1013.54 1014.90 1015.18 1015.63 1015.44 1015.02 1013.35 1013.82 1014.49 1014.77 1014.95 1014.63 1014.49 1014.76 1015.53 1014.89 1014.75 1014.20 1013.64 1012.61 1012.53 1013.22 1013.63 1013.37 1013.41 1013.56 1013.71 1013.57 1013.17 1013.29 1014.11 1015.66 1017.11 1018.21
1008.17 1008.39 1008.77 1009.19 1009.80 1010.41 1010.90 1011.40 1011.94 1012.51 1012.83 1013.19 1014.25 1014.75 1015.70 1015.08 1013.74 1012.41 1012.96 1013.98 1014.54 1014.64 1014.74 1014.48 1014.65 1015.01 1014.89 1014.53 1014.09 1014.08 1013.20 1012.92 1013.61 1014.14 1013.84 1013.62 1013.91 1013.73 1013.61 1013.05 1013.70 1013.45 1014.75 1016.94 1018.13
1007.56 1007.98 1008.40 1008.75 1009.30 1009.93 1010.52 1011.00 1011.44 1011.89 1012.75 1012.88 1013.65 1014.20 1015.85 1014.29 1012.14 1012.85 1013.30 1014.09 1014.37 1014.65 1014.22 1014.20 1014.34 1014.52 1014.66 1014.50 1014.67 1014.20 1013.25 1013.76 1014.30 1014.29 1014.06 1014.24 1013.84 1013.71 1013.23 1013.26 1013.87 1014.00 1015.30 1016.69 1017.77
1007.06 1007.54 1007.94 1008.31 1008.79 1009.33 1009.92 1010.41 1011.09 1011.64 1012.43 1013.01 1013.09 1014.09 1014.43 1013.36 1012.31 1012.37 1013.09 1014.02 1013.90 1014.07 1013.89 1014.11 1014.14 1014.66 1014.75 1014.65 1014.60 1013.96 1014.05 1014.48 1014.73 1014.39 1014.20 1014.12 1013.77 1013.95 1012.93 1012.91 1013.70 1014.28 1015.06 1016.33 1017.34
1006.55 1007.04 1007.57 1007.98 1008.27 1008.89 1009.36 1010.04 1010.81 1011.20 1012.03 1012.37 1012.80 1012.98 1013.52 1012.37 1011.94 1012.23 1012.87 1013.48 1013.59 1013.47 1013.46 1013.85 1014.15 1015.01 1015.37 1015.35 1015.34 1014.97 1014.90 1014.84 1014.53 1014.35 1014.09 1014.43 1013.57 1013.25 1012.91 1013.28 1013.39 1014.06 1014.69 1015.70 1016.85
1005.96 1006.54 1007.03 1007.25 1007.61 1008.25 1008.85 1009.54 1010.15 1010.78 1011.40 1011.63 1012.72 1011.85 1012.51 1012.60 1012.12 1012.40 1012.92 1013.50 1013.82 1013.65 1013.54 1013.99 1014.58 1015.30 1015.98 1016.14 1015.99 1015.30 1015.14 1014.44 1014.06 1014.53 1014.39 1014.65 1012.70 1012.42 1012.73 1012.99 1013.03 1013.40 1014.18 1015.24 1016.11
1005.51 1005.88 1006.39 1006.75 1007.16 1007.77 1008.42 1009.08 1010.01 1010.50 1011.41 1011.52 1013.42 1011.28 1012.09 1012.40 1012.26 1011.86 1012.42 1012.90 1013.48 1013.74 1013.80 1014.51 1015.00 1015.29 1016.21 1016.32 1016.24 1015.28 1014.39 1014.32 1013.93 1013.95 1014.31 1014.25 1012.71 1012.23 1012.82 1012.82 1012.73 1012.84 1013.40 1014.64 1015.51
1005.13 1005.48 1005.99 1006.49 1006.88 1007.34 1008.22 1008.89 1009.66 1010.54 1011.38 1012.70 1013.04 1011.04 1011.04 1010.67 1011.50 1011.28 1012.33 1012.54 1013.06 1013.84 1014.61 1014.95 1015.23 1015.25 1015.36 1015.18 1014.23 1014.69 1014.65 1014.43 1013.67 1013.75 1013.94 1013.56 1012.88 1012.46 1012.88 1012.91 1012.68 1012.47 1012.84 1013.55 1014.73
1004.66 1005.09 1005.43 1005.99 1006.60 1007.11 1008.09 1008.84 1009.42 1009.67 1009.81 1008.99 1008.57 1008.17 1009.35 1010.26 1010.85 1011.26 1011.79 1012.22 1013.00 1013.65 1013.79 1014.75 1014.80 1013.46 1014.12 1014.51 1014.10 1014.56 1014.51 1013.96 1013.51 1013.38 1013.91 1013.18 1012.69 1012.27 1012.35 1012.41 1012.41 1012.34 1012.43 1012.81 1013.66
1004.36 1004.81 1005.28 1005.73 1006.37 1006.88 1007.48 1007.15 1006.89 1006.81 1008.33 1008.82 1009.97 1008.74 1008.59 1009.03 1010.00 1010.82 1011.10 1011.45 1012.35 1012.74 1013.42 1014.78 1013.25 1013.55 1014.15 1014.57 1014.49 1014.55 1014.41 1014.39 1013.88 1014.43 1014.58 1013.36 1012.33 1012.20 1011.95 1011.45 1011.69 1011.83 1012.06 1012.34 1012.99
1004.12 1004.72 1005.36 1005.61 1006.11 1006.83 1006.63 1006.22 1006.91 1007.24 1007.46 1007.68 1008.86 1008.50 1007.54 1008.18 1008.94 1009.36 1009.81 1010.39 1011.52 1012.44 1012.64 1012.48 1012.74 1013.69 1014.08 1014.34 1014.59 1014.81 1014.79 1014.70 1014.71 1014.95 1014.84 1014.03 1011.95 1011.51 1011.10 1011.09 1011.08 1011.38 1011.33 1011.54 1012.16
1004.00 1004.70 1005.05 1005.46 1006.46 1005.59 1005.40 1006.17 1006.86 1007.86 1007.98 1006.89 1005.89 1006.75 1007.08 1007.47 1008.71 1009.08 1009.34 1009.87 1010.87 1011.54 1012.93 1013.13 1012.99 1013.44 1013.83 1013.94 1014.66 1015.24 1015.73 1015.91 1015.94 1015.99 1015.12 1014.60 1011.85 1010.12 1009.41 1009.22 1009.98 1010.18 1010.75 1010.81 1011.30
1003.88 1004.30 1004.78 1004.98 1004.09 1004.68 1004.47 1005.66 1006.61 1007.38 1006.59 1006.03 1005.78 1005.60 1006.22 1006.30 1007.19 1008.67 1008.57 1009.66 1009.83 1010.68 1012.00 1012.48 1012.73 1013.47 1013.69 1013.90 1014.73 1015.89 1016.49 1016.98 1017.10 1017.06 1016.78 1015.11 1013.85 1009.86 1009.74 1008.95 1008.68 1009.09 1009.67 1010.06 1010.38
1003.48 1003.86 1004.51 1004.92 1004.71 1004.34 1004.60 1005.03 1006.08 1005.99 1004.85 1006.33 1005.41 1003.88 1005.66 1005.36 1007.08 1008.43 1008.98 1009.38 1009.96 1010.94 1012.21 1013.50 1013.78 1013.81 1013.73 1014.46 1015.34 1016.73 1017.68 1018.22 1018.42 1018.30 1016.79 1014.87 1013.66 1010.14 1009.05 1008.49 1008.57 1008.44 1008.40 1009.01 1009.71
1003.20 1003.56 1004.20 1004.19 1003.72 1004.33 1005.23 1005.39 1004.13 1003.14 1005.19 1005.11 1004.07 1003.81 1004.81 1004.50 1006.53 1007.08 1008.35 1008.34 1008.07 1010.04 1011.73 1013.64 1014.17 1014.46 1014.46 1015.26 1016.31 1016.62 1017.23 1018.68 1018.91 1018.51 1015.40 1014.43 1013.35 1010.00 1008.80 1008.47 1008.06 1008.32 1008.07 1008.27 1009.05
1002.95 1003.46 1003.76 1004.02 1003.96 1004.55 1005.16 1005.25 1002.94 1001.48 1002.56 1003.00 1003.14 1003.74 1004.05 1004.46 1006.21 1007.09 1007.78 1007.79 1007.77 1007.75 1010.24 1012.05 1014.70 1014.38 1014.38 1014.64 1015.61 1016.81 1016.72 1016.90 1016.85 1016.81 1015.02 1014.65 1011.62 1009.19 1008.69 1008.43 1008.44 1008.10 1008.19 1008.26 1008.38
1002.80 1003.23 1003.31 1003.46 1004.39 1004.74 1006.04 1004.90 1002.05 1000.61 1002.05 1002.66 1002.86 1002.42 1003.37 1003.97 1005.03 1006.47 1006.99 1006.50 1006.45 1006.25 1007.19 1010.14 1013.05 1014.45 1014.59 1014.74 1015.37 1016.46 1016.91 1016.53 1016.13 1016.94 1015.59 1012.72 1010.49 1009.29 1008.57 1008.03 1008.02 1008.00 1008.21 1008.31 1008.73
1002.34 1002.80 1002.38 1003.01 1004.09 1005.16 1005.86 1003.71 1001.86 1000.57 1000.22 1000.84 999.84 1000.54 1001.92 1003.39 1004.45 1005.39 1006.02 1005.97 1005.78 1005.93 1006.34 1008.81 1012.57 1014.56 1015.31 1015.09 1015.57 1014.85 1015.90 1016.03 1015.93 1015.53 1014.15 1010.92 1009.42 1007.94 1008.03 1007.46 1007.34 1007.68 1007.91 1008.12 1008.48
1002.38 1002.37 1002.05 1002.26 1003.13 1004.64 1004.75 1003.97 1002.49 1000.17 998.73 998.49 998.46 999.03 1000.23 1000.83 1002.15 1003.28 1003.38 1004.49 1004.79 1005.37 1006.46 1007.94 1010.40 1014.82 1015.18 1014.19 1013.93 1014.73 1014.71 1014.61 1014.37 1014.22 1012.93 1010.85 1008.17 1006.92 1006.57 1007.09 1007.42 1007.97 1008.39 1008.49 1008.78
1001.80 1002.18 1002.08 1001.88 1002.55 1002.36 1002.42 1001.47 1000.16 998.74 996.78 996.51 997.15 997.76 998.02 999.21 1001.14 1001.98 1003.10 1003.32 1004.14 1005.14 1005.97 1007.43 1010.02 1012.76 1013.80 1014.07 1013.65 1013.28 1013.43 1013.53 1013.24 1013.95 1013.15 1011.61 1008.11 1007.41 1007.11 1007.48 1008.04 1008.35 1008.72 1009.00 1009.53
1001.29 1001.79 1001.89 1001.74 1002.17 1001.89 1001.91 1001.49 1000.99 998.38 996.78 996.17 996.32 996.89 998.03 998.98 1000.74 1002.06 1003.03 1003.88 1004.41 1005.10 1005.54 1006.87 1009.68 1012.05 1014.07 1014.14 1013.27 1012.66 1012.51 1012.79 1012.99 1013.37 1012.57 1011.88 1007.51 1006.30 1007.13 1008.17 1008.60 1008.62 1008.81 1009.18 1009.50
1001.13 1001.63 1002.13 1001.61 1001.34 1001.30 1000.28 999.56 998.58 996.84 996.18 995.27 995.05 995.71 997.33 998.72 999.92 1001.35 1002.97 1004.34 1004.90 1005.38 1006.02 1006.66 1008.34 1008.75 1009.01 1009.27 1010.85 1012.02 1011.80 1012.14 1012.70 1012.90 1010.46 1010.39 1006.92 1007.34 1007.95 1008.26 1008.66 1008.89 1009.03 1009.36 1009.50
1000.80 1000.62 1000.72 1001.00 1000.82 1000.28 1000.27 998.85 997.68 996.32 995.55 994.78 995.04 995.14 995.41 998.10 999.94 1001.93 1003.22 1004.59 1005.92 1005.70 1006.11 1006.35 1007.67 1008.71 1009.13 1009.15 1009.88 1010.32 1010.95 1011.73 1011.77 1009.72 1010.70 1008.68 1008.31 1007.99 1008.18 1008.19 1008.16 1008.40 1008.90 1009.17 1009.21
1000.38 1000.89 1000.91 1000.43 1000.22 1000.00 999.00 997.25 996.13 996.01 994.98 994.27 994.03 994.64 995.42 996.46 995.97 997.98 1000.45 1002.92 1003.82 1005.40 1005.86 1006.61 1007.79 1009.11 1010.59 1010.24 1010.43 1010.43 1010.23 1010.13 1009.94 1009.76 1010.53 1008.89 1008.31 1008.23 1008.20 1008.45 1008.88 1008.82 1008.94 1008.97 1009.10
1000.28 1000.11 1000.14 999.87 999.85 999.49 997.81 996.69 995.64 995.03 994.75 993.87 992.63 993.60 994.97 995.99 997.58 999.98 1001.30 1001.85 1002.93 1004.39 1005.71 1006.80 1008.29 1009.47 1011.27 1011.25 1011.13 1010.51 1008.43 1009.07 1008.96 1009.29 1008.86 1008.84 1006.94 1008.20 1008.12 1008.56 1008.66 1008.72 1008.81 1009.14 1009.29
Wind_Speed
19 18 16 17 17 14 9 12 19 18 16 13 12 9 10 10 9 11 13 3 4 7 5 6 7 4 3 3 5 4 10 10 12 8 1 4 7 1 3 4 5 5 2 5 20
19 19 18 19 19 17 15 8 12 19 19 15 14 12 11 13 12 14 4 7 6 10 10 13 5 5 3 4 4 8 10 13 4 3 3 3 5 5 6 7 8 8 5 15 18
19 20 19 19 20 19 17 15 8 10 20 20 22 16 14 15 11 13 13 10 10 9 9 13 11 2 4 4 7 9 14 7 4 4 1 3 2 4 7 8 8 10 12 16 16
18 18 19 20 21 22 20 18 15 8 14 24 26 18 17 18 11 5 21 16 12 11 10 11 13 8 3 8 10 8 15 11 8 4 3 3 1 3 11 6 6 2 16 17 17
16 18 17 19 22 24 22 21 18 15 4 18 21 23 11 12 16 8 9 12 15 16 15 13 16 13 12 8 6 11 10 3 6 6 4 3 1 5 9 10 1 4 14 17 17
18 18 18 15 21 25 23 21 20 19 16 6 25 24 6 15 12 8 11 16 16 19 17 15 10 7 11 4 12 9 10 11 8 5 3 4 1 2 3 7 7 9 13 15 17
18 18 19 18 19 25 25 23 21 21 20 18 23 16 10 19 12 9 15 20 16 18 18 14 6 6 2 3 1 3 10 6 8 6 7 3 14 9 9 3 9 10 11 13 16
19 20 19 17 15 25 25 22 19 22 23 16 15 14 8 15 9 15 16 17 12 15 12 12 6 8 4 1 0 8 9 9 10 10 4 5 18 13 4 7 11 11 11 12 16
18 19 15 13 13 22 23 21 19 21 22 17 6 11 11 7 18 20 20 19 17 12 7 7 8 8 8 7 3 8 10 15 12 11 12 12 13 16 2 8 11 12 12 12 13
17 15 16 14 12 16 21 20 19 16 13 12 11 15 10 22 19 21 19 21 20 16 11 8 5 11 10 12 11 5 11 11 17 10 8 14 17 14 9 8 10 11 11 12 14
18 17 15 15 12 11 13 7 10 9 8 14 12 8 16 20 18 19 21 23 20 18 14 12 8 20 20 17 7 14 11 16 11 5 4 14 18 19 18 13 11 11 12 12 14
17 14 15 14 14 5 10 8 21 3 12 20 26 16 16 22 15 24 26 17 18 20 17 8 19 18 17 17 14 8 16 16 5 5 4 13 17 13 16 17 15 14 13 14 14
14 11 10 10 9 6 14 24 16 2 5 18 29 23 25 27 20 29 31 20 23 22 21 17 14 15 19 18 17 10 15 14 11 3 10 14 23 22 18 20 16 16 16 15 15
13 11 10 11 5 10 19 16 13 4 4 6 29 13 17 17 14 27 22 19 12 21 17 12 14 20 17 21 18 12 3 4 1 3 6 1 10 14 11 20 21 20 18 18 17
13 13 14 19 5 14 9 12 14 2 7 13 9 16 18 25 24 27 22 9 22 17 10 9 15 21 21 20 17 2 11 4 3 1 8 13 8 8 12 17 17 18 21 20 18
15 16 14 11 9 7 3 10 10 11 11 11 10 14 23 18 21 22 8 4 15 21 8 5 0 11 18 17 13 19 10 10 7 3 8 14 13 10 14 17 12 15 16 19 20
14 16 14 9 10 9 4 3 11 13 10 6 10 19 19 29 15 22 13 17 17 19 16 8 11 3 7 12 15 4 12 1 1 5 7 5 12 14 14 12 8 9 11 12 16
14 13 8 9 7 5 4 10 14 12 11 2 18 30 14 27 18 24 19 16 19 16 16 12 7 11 17 9 11 8 5 5 10 8 6 2 12 6 8 4 6 11 9 9 8
11 7 7 8 8 4 5 13 6 11 12 17 26 33 10 13 9 20 21 25 18 23 16 16 9 9 13 8 17 7 5 4 5 3 2 8 11 14 14 14 11 12 10 12 5
6 7 9 13 12 5 3 6 5 16 17 29 23 13 15 12 16 19 24 24 20 22 11 17 9 8 5 11 4 12 13 5 1 6 8 10 15 10 7 10 10 11 7 5 5
5 5 2 15 6 4 6 7 7 16 27 29 23 18 20 25 23 32 34 21 25 27 17 23 9 6 7 12 15 9 10 7 5 5 5 6 10 4 3 3 3 3 3 2 0
3 4 0 9 3 2 5 5 4 17 18 17 22 21 31 32 21 13 25 14 24 22 24 9 8 10 12 3 4 16 14 12 8 6 7 5 12 4 5 7 5 5 5 5 3
2 2 1 4 6 8 5 13 12 24 27 15 21 16 22 21 14 13 21 10 22 26 23 13 9 10 2 6 8 15 18 18 9 4 9 6 13 9 11 5 2 3 2 2 4
3 4 3 2 3 4 6 9 8 26 24 21 23 17 26 22 14 14 19 8 21 22 11 6 10 11 13 8 14 15 22 19 17 7 17 17 27 7 5 2 3 4 3 7 8
2 2 2 5 5 9 7 10 18 15 5 14 13 28 34 17 21 15 19 14 13 14 9 8 5 10 6 8 17 16 20 21 25 30 15 23 23 16 18 16 12 12 12 12 11
4 4 1 2 1 6 10 13 23 11 20 20 22 32 29 25 20 38 26 21 20 19 16 7 4 8 4 9 12 12 20 26 28 25 23 23 23 14 15 10 11 13 13 12 10
1 1 1 4 3 4 5 11 24 19 16 11 32 33 29 23 15 20 16 13 18 21 20 12 7 5 6 4 6 5 21 23 24 23 27 22 26 9 7 7 12 13 11 10 11
Wind_Direction
232 232 228 222 213 211 208 221 209 200 204 215 213 185 160 152 140 180 217 187 155 148 181 140 198 231 225 184 243 273 239 232 226 235 139 123 189 150 33 144 207 161 350 82 140
232 230 225 220 213 213 204 190 219 208 195 200 231 193 165 164 189 214 152 138 175 165 192 186 181 170 191 189 212 236 224 233 345 16 93 148 231 160 211 189 209 178 124 125 154
231 225 225 215 213 205 212 209 200 220 199 193 218 190 178 179 222 234 163 182 191 183 222 205 160 89 179 202 197 226 239 220 144 105 141 99 221 233 237 232 233 203 165 151 171
231 227 226 216 212 206 207 216 205 188 218 198 203 171 185 198 212 53 152 171 180 192 189 184 187 174 166 196 200 242 230 225 145 133 189 129 93 247 243 261 15 243 151 161 181
226 223 225 215 214 209 206 212 212 212 186 210 188 161 185 219 213 128 158 170 177 195 190 184 190 192 188 203 188 231 221 244 146 160 112 161 92 286 265 261 345 155 151 172 186
221 220 222 212 214 211 206 209 212 207 209 328 171 160 184 219 212 143 170 181 189 189 197 195 200 189 208 250 209 214 203 206 191 176 137 279 236 258 217 236 196 183 177 178 190
215 216 213 213 214 214 208 207 207 202 204 194 190 164 189 210 192 173 175 186 194 194 191 196 173 137 149 119 341 163 196 193 199 236 238 277 254 228 263 186 211 205 194 181 188
216 210 212 210 220 210 205 204 211 193 210 201 283 154 215 207 206 170 168 174 191 199 205 183 157 136 134 127 223 212 230 206 217 205 199 216 257 241 210 222 223 210 206 196 198
218 213 204 204 209 206 205 199 190 185 199 198 309 189 188 156 193 171 168 170 169 166 156 140 187 171 155 128 176 202 218 220 236 205 216 212 258 249 188 232 239 218 210 198 214
210 203 200 186 193 196 204 199 194 197 184 199 261 185 153 180 177 166 180 162 159 141 138 152 152 187 190 179 195 181 193 222 227 172 213 232 248 258 188 239 242 243 212 211 213
197 188 188 187 173 196 192 192 187 193 192 201 262 165 151 160 152 175 175 161 162 174 174 170 180 201 195 198 219 193 197 233 224 143 226 241 250 248 243 226 235 237 237 218 219
186 181 190 188 186 151 198 222 202 57 204 202 237 200 159 149 156 167 165 160 168 181 168 165 216 200 201 200 207 217 203 219 262 143 244 263 258 251 255 253 232 234 227 229 217
166 165 178 189 201 198 213 215 218 197 227 214 205 209 159 162 164 167 173 168 177 181 186 194 188 190 202 198 202 208 216 222 219 155 241 274 273 257 248 243 240 244 235 225 221
172 179 182 173 156 211 224 219 208 121 213 266 187 191 175 155 170 167 182 160 165 181 171 215 204 190 199 195 195 197 196 240 291 261 270 191 284 273 252 229 221 228 228 224 216
190 191 191 183 147 197 195 187 182 120 233 148 187 147 159 165 133 182 167 177 170 161 167 172 160 186 195 205 199 153 179 193 103 343 330 238 265 269 244 246 249 226 226 226 216
199 198 197 209 238 227 92 190 179 220 200 175 182 155 157 148 154 153 160 213 153 148 160 106 336 180 201 199 179 136 96 59 56 42 250 242 244 252 252 241 243 243 247 226 225
201 197 199 195 225 210 151 173 213 213 137 210 172 163 158 147 138 164 155 163 160 156 171 144 158 116 157 102 134 133 157 128 188 201 249 1 223 256 287 276 278 290 277 235 227
206 200 208 214 228 94 129 221 238 187 167 168 170 157 172 146 155 166 155 165 173 175 145 158 186 179 171 164 165 173 145 179 203 214 253 127 239 264 234 286 268 254 256 273 265
185 207 224 191 141 109 102 230 251 145 152 162 163 163 157 161 130 160 176 176 176 172 161 174 146 177 161 128 151 158 179 309 99 42 282 220 246 257 229 250 250 250 244 237 252
189 210 219 154 154 105 145 250 293 169 159 166 168 150 154 151 154 174 176 184 178 190 148 162 123 185 145 149 197 184 153 131 156 202 240 245 247 245 202 246 261 235 253 244 270
193 201 111 138 106 138 190 224 234 217 167 169 163 154 166 157 164 178 184 177 185 185 180 158 134 159 160 202 170 162 178 202 188 234 237 282 258 351 242 244 251 84 48 339 126
169 188 340 167 151 152 211 226 259 227 179 182 179 171 170 163 162 155 182 169 166 174 170 124 109 148 178 95 232 198 186 179 189 179 247 317 263 138 136 126 159 140 112 76 59
175 112 254 216 183 199 201 208 234 185 178 189 171 181 156 169 139 160 166 172 162 169 164 161 134 115 119 314 209 212 203 198 220 28 205 199 264 222 162 134 156 161 123 6 1
151 162 184 241 149 219 175 220 219 181 180 176 173 154 154 164 126 145 145 169 162 177 140 129 159 177 185 185 145 194 201 196 199 197 222 218 254 204 143 246 234 226 281 300 298
209 199 303 164 223 228 212 204 188 156 245 160 161 165 161 145 133 147 131 133 174 180 156 166 139 197 89 146 170 189 191 189 207 224 215 235 243 255 275 291 280 299 302 298 300
168 166 133 213 174 234 219 214 181 142 169 171 164 167 162 166 181 167 155 162 174 185 179 196 122 132 48 156 170 184 194 204 212 220 232 244 253 274 284 279 289 282 285 287 289
150 73 275 151 200 236 203 199 174 167 199 191 163 161 174 177 139 149 155 126 153 170 182 161 133 134 141 140 107 277 217 205 215 215 222 231 236 204 282 297 258 268 272 289 289